Retour au catalogue

SL-16 DEB

ActifLEO
NORAD 28357·DEBRIS·🇷🇺 Russia

Lancé Jun 10, 2004 depuis Baikonur Cosmodrome

Loading…

Prochains Passages (prochaines 24 heures)

TLE

FraisSource: Space-Track

Époque: Sep 14, 2026, 09:59 UTC

1 28357U 04021F   26257.41632545  .00000017  00000-0  56201-4 0  9990
2 28357  71.0723 306.8402 0200527 324.4791  47.9439 13.73575804115136

Suivez SL-16 DEB en temps réel avec AllMySat

Download on the App Store